FW4703 Safety Harbor FL US current weather conditions

sailwx.info

Wind from 198 at 1 knots gusting 3

Air temperature 21.1° C
Dewpoint 18.3° C

Last reported at 2020-Jan-19 15:05 UTC.
Time now 2020-Jan-19 15:42 UTC

Location: N 28°01' W 082°42'.
View on Google Maps.

See reports from other nearby stations

  
Tides and Currents Weather Stations Pressure Air Temp Water Temp Dewpoint Dewpoint Depression Visibility Wind Speed Wind Dir Waves Ship Positions
date/time (UTC)wind fromknots sea level pressurealtimeterstation pressurevisibilityair tempwater tempwave heightnotes
2020-Jan-19 15:05 198 1 gusting 3 21.1
2020-Jan-19 15:00 192 21.1
2020-Jan-19 14:55 192 0 gusting 2 20.6
2020-Jan-19 14:47 201 0 gusting 5 20.6
2020-Jan-19 14:40 201 1 gusting 5 20.6
2020-Jan-19 14:35 209 0 gusting 5 20.6
2020-Jan-19 14:32 212 0 gusting 3 20.6
2020-Jan-19 14:25 196 0 gusting 3 20.6
2020-Jan-19 14:20 188 0 gusting 3 20.0
2020-Jan-19 14:16 209 0 gusting 4 20.0
2020-Jan-19 14:10 215 2 gusting 4 20.0
2020-Jan-19 14:05 205 0 gusting 2 20.0
2020-Jan-19 14:02 184 0 gusting 2 20.0
2020-Jan-19 13:56 200 0 gusting 4 20.0
2020-Jan-19 13:47 189 0 gusting 4 19.4
2020-Jan-19 13:40 197 0 gusting 2 19.4
2020-Jan-19 13:35 179 0 gusting 2 19.4
2020-Jan-19 13:32 194 0 gusting 1 19.4
2020-Jan-19 13:26 194 0 gusting 1 19.4
2020-Jan-19 13:20 196 0 gusting 2 19.4
2020-Jan-19 13:18 200 0 gusting 5 19.4
2020-Jan-19 13:11 192 1 gusting 5 19.4
2020-Jan-19 13:05 191 1 gusting 3 19.4
2020-Jan-19 13:03 188 0 gusting 3 19.4
2020-Jan-19 12:56 186 0 gusting 3 18.9
2020-Jan-19 12:50 207 0 gusting 2 18.9
2020-Jan-19 12:46 207 0 gusting 2 18.9
2020-Jan-19 12:40 190 0 gusting 4 18.9
2020-Jan-19 12:35 186 0 gusting 4 18.9
2020-Jan-19 12:33 196 1 gusting 3 18.9
2020-Jan-19 12:25 200 0 gusting 3 18.9
2020-Jan-19 12:20 180 0 gusting 3 18.9
2020-Jan-19 12:16 191 0 gusting 3 18.9
2020-Jan-19 12:10 175 0 gusting 1 18.9
2020-Jan-19 12:05 173 0 gusting 2 18.9
2020-Jan-19 12:01 165 0 gusting 2 18.9
2020-Jan-19 11:55 195 0 gusting 3 18.9
2020-Jan-19 11:50 213 0 gusting 5 18.9
2020-Jan-19 11:46 211 1 gusting 6 18.9
2020-Jan-19 11:40 199 1 gusting 6 18.9
2020-Jan-19 11:36 198 0 gusting 2 18.9
2020-Jan-19 11:30 188 0 gusting 2 18.9
2020-Jan-19 11:20 191 0 gusting 4 18.9
2020-Jan-19 11:16 188 1 gusting 4 18.9
2020-Jan-19 11:10 182 1 gusting 4 18.9
2020-Jan-19 11:05 188 0 gusting 3 18.9
2020-Jan-19 10:55 189 0 gusting 2 18.9
2020-Jan-19 10:50 197 0 gusting 3 18.9
2020-Jan-19 10:45 196 0 gusting 3 18.9
2020-Jan-19 10:40 171 0 gusting 3 18.9
2020-Jan-19 10:35 171 0 gusting 3 18.9
2020-Jan-19 10:31 207 0 gusting 3 18.9
2020-Jan-19 10:25 190 0 gusting 3 18.9
2020-Jan-19 10:20 197 1 gusting 3 18.9
2020-Jan-19 10:16 190 0 gusting 2 18.9
2020-Jan-19 10:10 182 0 gusting 4 18.9
2020-Jan-19 10:05 198 0 gusting 4 18.9
2020-Jan-19 10:01 190 0 gusting 3 18.9
2020-Jan-19 09:55 186 1 gusting 3 18.9
2020-Jan-19 09:50 203 0 gusting 3 18.9
2020-Jan-19 09:45 199 0 gusting 5 18.9
2020-Jan-19 09:40 199 1 gusting 5 18.9
2020-Jan-19 09:35 186 0 gusting 3 18.9
2020-Jan-19 09:30 188 0 gusting 3 18.9
2020-Jan-19 09:25 210 0 gusting 4 18.9
2020-Jan-19 09:20 182 0 gusting 4 18.9
2020-Jan-19 09:15 180 0 gusting 2 18.9
2020-Jan-19 09:10 165 0 gusting 3 18.9
2020-Jan-19 09:05 192 0 gusting 3 18.9
2020-Jan-19 08:55 182 0 gusting 4 18.9
2020-Jan-19 08:50 212 0 gusting 4 18.9
2020-Jan-19 08:45 153 0 gusting 3 18.9
2020-Jan-19 08:40 214 0 gusting 3 18.9
2020-Jan-19 08:35 201 0 gusting 3 18.9
2020-Jan-19 08:25 211 0 gusting 4 18.9
2020-Jan-19 08:15 163 0 gusting 3 18.9
2020-Jan-19 08:10 205 1 gusting 4 18.9
2020-Jan-19 08:00 178 0 gusting 4 18.9
2020-Jan-19 07:55 170 1 gusting 4 19.4
2020-Jan-19 07:50 173 1 gusting 4 19.4
2020-Jan-19 07:45 165 1 gusting 4 19.4
2020-Jan-19 07:40 196 1 gusting 4 19.4
2020-Jan-19 07:35 172 1 gusting 3 19.4
2020-Jan-19 07:25 197 1 gusting 6 19.4
2020-Jan-19 07:20 213 1 gusting 5 19.4
2020-Jan-19 07:10 203 1 gusting 6 19.4
2020-Jan-19 07:05 156 1 gusting 6 19.4
2020-Jan-19 06:55 169 0 gusting 2 19.4
2020-Jan-19 06:50 167 1 gusting 2 19.4
2020-Jan-19 06:45 188 0 gusting 4 19.4
2020-Jan-19 06:35 209 1 gusting 6 19.4
2020-Jan-19 06:25 199 0 gusting 3 19.4
2020-Jan-19 06:20 192 0 gusting 5 19.4
2020-Jan-19 06:10 205 0 gusting 3 20.0
2020-Jan-19 06:05 205 1 gusting 3 20.0
2020-Jan-19 06:00 213 1 gusting 5 20.0
2020-Jan-19 05:55 195 1 gusting 6 20.0
2020-Jan-19 05:40 208 2 gusting 6 20.0
2020-Jan-19 05:35 213 1 gusting 5 20.0
2020-Jan-19 05:31 176 1 gusting 5 20.0
2020-Jan-19 05:25 164 1 gusting 4 20.0
2020-Jan-19 05:20 152 1 gusting 4 20.0
2020-Jan-19 05:17 174 1 gusting 6 20.0
2020-Jan-19 05:10 203 2 gusting 6 20.0
2020-Jan-19 05:06 185 1 gusting 4 20.0
2020-Jan-19 05:01 194 2 gusting 4 20.0
2020-Jan-19 04:56 194 1 gusting 6 20.0
2020-Jan-19 04:50 189 2 gusting 6 20.0
2020-Jan-19 04:47 190 1 gusting 5 20.0
2020-Jan-19 04:40 196 1 gusting 6 20.0
2020-Jan-19 04:35 205 2 gusting 6 20.0
2020-Jan-19 04:32 133 2 gusting 5 20.0
2020-Jan-19 04:25 190 1 gusting 2 20.0
2020-Jan-19 04:21 192 0 gusting 2 20.0
2020-Jan-19 04:17 190 0 gusting 3 20.6
2020-Jan-19 04:10 189 1 gusting 6 20.6
2020-Jan-19 04:05 191 1 gusting 6 20.6
2020-Jan-19 03:55 199 1 gusting 5 20.6
2020-Jan-19 03:50 198 1 gusting 6 20.6
2020-Jan-19 03:46 177 1 gusting 4 20.6
2020-Jan-19 03:40 197 1 gusting 4 20.6
2020-Jan-19 03:35 209 1 gusting 3 20.6
2020-Jan-19 03:32 179 20.6
2020-Jan-19 03:25 194 0 gusting 3 20.6
2020-Jan-19 03:21 193 0 gusting 3 20.6
2020-Jan-19 03:16 184 0 gusting 4 20.6
2020-Jan-19 03:10 195 1 gusting 4 20.6
2020-Jan-19 03:05 191 1 gusting 3 20.0
2020-Jan-19 03:01 197 0 gusting 1 20.0
2020-Jan-19 02:55 197 0 gusting 1 20.0
2020-Jan-19 02:51 198 20.0
2020-Jan-19 02:46 198 20.0
2020-Jan-19 02:40 195 20.0
2020-Jan-19 02:36 195 20.6
2020-Jan-19 02:31 195 20.6
2020-Jan-19 02:25 196 20.6
2020-Jan-19 02:20 196 20.6
2020-Jan-19 02:17 198 0 gusting 2 20.6
2020-Jan-19 02:10 205 0 gusting 2 20.6
2020-Jan-19 02:05 200 0 gusting 2 20.6
2020-Jan-19 02:01 188 0 gusting 2 21.1
2020-Jan-19 01:55 190 0 gusting 2 21.1
2020-Jan-19 01:50 190 0 gusting 1 21.1
2020-Jan-19 01:46 186 20.6
2020-Jan-19 01:40 186 0 gusting 1 20.6
2020-Jan-19 01:35 186 0 gusting 1 20.6
2020-Jan-19 01:31 184 0 gusting 1 21.1
2020-Jan-19 01:25 183 21.1
2020-Jan-19 01:20 183 21.1
2020-Jan-19 01:16 183 21.1
2020-Jan-19 01:10 183 21.1
2020-Jan-19 01:05 183 0 gusting 1 21.1
2020-Jan-19 01:01 184 0 gusting 1 21.7
2020-Jan-19 00:55 184 21.7
2020-Jan-19 00:50 184 21.7
2020-Jan-19 00:47 184 21.7
2020-Jan-19 00:40 184 21.7
2020-Jan-19 00:35 184 22.2
2020-Jan-19 00:31 184 0 gusting 4 21.7
2020-Jan-19 00:25 196 21.7
2020-Jan-19 00:20 197 0 gusting 1 21.7
2020-Jan-19 00:18 197 21.7
2020-Jan-19 00:10 197 21.7
2020-Jan-19 00:05 192 0 gusting 1 21.7
2020-Jan-19 00:01 192 21.7
2020-Jan-18 23:55 191 21.7
2020-Jan-18 23:50 191 22.2
2020-Jan-18 23:46 191 22.2
2020-Jan-18 23:35 191 22.2
2020-Jan-18 23:30 191 22.2
2020-Jan-18 23:25 191 22.2
2020-Jan-18 23:20 191 22.8
2020-Jan-18 23:17 191 22.8
2020-Jan-18 23:10 191 22.8
2020-Jan-18 23:05 191 22.8
2020-Jan-18 23:01 191 22.8
2020-Jan-18 22:55 191 22.8
2020-Jan-18 22:51 191 22.8
2020-Jan-18 22:40 191 0 gusting 1 23.3
2020-Jan-18 22:35 213 23.3
2020-Jan-18 22:31 213 0 gusting 2 23.3
2020-Jan-18 22:25 211 0 gusting 1 23.3
2020-Jan-18 22:20 211 23.9
2020-Jan-18 22:16 212 0 gusting 1 23.9
2020-Jan-18 22:10 213 23.9
2020-Jan-18 22:05 211 23.9
2020-Jan-18 22:01 212 23.9
2020-Jan-18 21:55 213 0 gusting 2 23.9
2020-Jan-18 21:50 186 23.9
2020-Jan-18 21:46 183 0 gusting 2 23.9
2020-Jan-18 21:40 198 0 gusting 1 23.9
2020-Jan-18 21:35 198 0 gusting 1 23.9
2020-Jan-18 21:31 198 23.9
2020-Jan-18 21:26 198 23.9
2020-Jan-18 21:20 198 23.9
2020-Jan-18 21:15 198 0 gusting 1 23.9
2020-Jan-18 21:10 198 0 gusting 1 23.9
2020-Jan-18 21:05 201 23.9
2020-Jan-18 21:00 201 23.9
2020-Jan-18 20:55 200 23.9
2020-Jan-18 20:50 201 0 gusting 1 24.4
2020-Jan-18 20:45 201 24.4
2020-Jan-18 20:40 201 0 gusting 3 24.4
2020-Jan-18 20:35 200 0 gusting 4 24.4
2020-Jan-18 20:30 188 1 gusting 4 24.4
2020-Jan-18 20:25 227 1 gusting 4 24.4
2020-Jan-18 20:20 211 0 gusting 3 24.4
2020-Jan-18 20:15 200 0 gusting 2 24.4
2020-Jan-18 20:10 200 0 gusting 4 24.4
2020-Jan-18 20:05 186 1 gusting 4 24.4
2020-Jan-18 20:00 169 1 gusting 4 24.4
2020-Jan-18 19:55 173 0 gusting 4 25.0
2020-Jan-18 19:50 163 1 gusting 5 24.4
2020-Jan-18 19:40 159 0 gusting 5 25.0
2020-Jan-18 19:35 163 2 gusting 5 24.4
2020-Jan-18 19:30 142 1 gusting 4 24.4
2020-Jan-18 19:25 025 0 gusting 4 25.0
2020-Jan-18 19:20 208 1 gusting 5 24.4
2020-Jan-18 19:10 195 0 gusting 6 24.4
2020-Jan-18 19:05 175 1 gusting 6 24.4
2020-Jan-18 19:00 128 0 gusting 6 24.4
2020-Jan-18 18:55 134 1 gusting 6 23.9
2020-Jan-18 18:50 190 1 gusting 4 23.9
2020-Jan-18 18:45 201 1 gusting 4 23.9
2020-Jan-18 18:40 193 0 gusting 4 24.4
2020-Jan-18 18:35 198 1 gusting 4 24.4
2020-Jan-18 18:30 119 0 gusting 4 24.4
2020-Jan-18 18:25 219 1 gusting 4 23.9
2020-Jan-18 18:20 182 0 gusting 5 23.9
2020-Jan-18 18:15 191 1 gusting 6 24.4
2020-Jan-18 18:10 205 2 gusting 6 23.9
2020-Jan-18 18:05 179 1 gusting 3 23.9
2020-Jan-18 17:55 136 1 gusting 6 23.9
2020-Jan-18 17:50 208 1 gusting 6 23.9
2020-Jan-18 17:47 175 2 gusting 6 23.9
2020-Jan-18 17:40 169 2 gusting 6 23.3
2020-Jan-18 17:35 155 2 gusting 5 23.3
2020-Jan-18 17:31 168 1 gusting 6 23.3
2020-Jan-18 17:26 147 3 gusting 7 23.3
2020-Jan-18 17:21 140 2 gusting 6 23.3
2020-Jan-18 17:17 096 1 gusting 5 23.9
2020-Jan-18 17:10 184 1 gusting 5 23.9
2020-Jan-18 17:06 212 1 gusting 5 23.3
2020-Jan-18 17:01 165 1 gusting 4 23.3
2020-Jan-18 16:55 146 2 gusting 4 23.3
2020-Jan-18 16:50 198 1 gusting 6 23.3
2020-Jan-18 16:46 155 2 gusting 6 22.8
2020-Jan-18 16:40 147 2 gusting 6 22.8
2020-Jan-18 16:36 140 2 gusting 6 22.8
2020-Jan-18 16:32 213 2 gusting 4 22.8
2020-Jan-18 16:25 157 1 gusting 4 22.8
2020-Jan-18 16:20 200 0 gusting 3 22.8
2020-Jan-18 16:16 186 1 gusting 5 22.8
2020-Jan-18 16:10 171 0 gusting 5 22.2
2020-Jan-18 16:05 193 1 gusting 4 22.2
2020-Jan-18 16:01 107 1 gusting 4 22.2
2020-Jan-18 15:55 210 0 gusting 4 22.2
2020-Jan-18 15:50 188 1 gusting 4 22.2
2020-Jan-18 15:46 182 1 gusting 5 21.7
2020-Jan-18 15:40 188 1 gusting 5 21.7
2020-Jan-18 15:35 172 2 gusting 5 21.1
2020-Jan-18 15:32 198 0 gusting 2 21.7
2020-Jan-18 15:25 192 0 gusting 5 21.1
2020-Jan-18 15:20 188 1 gusting 5 21.1
2020-Jan-18 15:15 207 1 gusting 4 21.1
2020-Jan-18 15:10 184 1 gusting 5 20.6
2020-Jan-18 15:05 167 1 gusting 5 20.6
2020-Jan-18 15:00 180 0 gusting 2 20.0
2020-Jan-18 14:55 217 0 gusting 2 20.0
2020-Jan-18 14:50 165 0 gusting 3 20.0
2020-Jan-18 14:47 213 0 gusting 2 19.4
2020-Jan-18 14:40 215 0 gusting 2 19.4
2020-Jan-18 14:35 188 0 gusting 2 19.4
2020-Jan-18 14:31 180 0 gusting 4 19.4
2020-Jan-18 14:25 160 0 gusting 4 19.4
2020-Jan-18 14:20 049 0 gusting 1 19.4
2020-Jan-18 14:15 027 18.9
2020-Jan-18 14:10 027 18.3
2020-Jan-18 14:01 034 17.8
2020-Jan-18 13:55 034 17.2
2020-Jan-18 13:50 034 17.2
2020-Jan-18 13:40 034 16.7
2020-Jan-18 13:30 034 16.7
2020-Jan-18 13:25 034 16.7
2020-Jan-18 13:20 034 16.1
2020-Jan-18 13:10 033 16.1
2020-Jan-18 13:05 033 16.1
2020-Jan-18 13:00 033 16.1
2020-Jan-18 12:55 033 15.6
2020-Jan-18 12:50 033 15.6
2020-Jan-18 12:40 015 15.6
2020-Jan-18 12:35 015 15.6
2020-Jan-18 12:25 015 15.6
2020-Jan-18 12:20 015 15.6
2020-Jan-18 12:10 015 15.6
2020-Jan-18 12:05 015 15.6
2020-Jan-18 12:00 015 15.6
2020-Jan-18 11:55 015 15.6
2020-Jan-18 11:50 015 16.1
2020-Jan-18 11:45 015 16.1
2020-Jan-18 11:40 015 16.1
2020-Jan-18 11:35 015 16.1
2020-Jan-18 11:30 015 16.1
2020-Jan-18 11:25 015 16.1
2020-Jan-18 11:16 015 16.1
2020-Jan-18 11:11 015 16.1
2020-Jan-18 11:06 015 16.1
2020-Jan-18 11:04 015 16.1
2020-Jan-18 10:55 015 16.1
2020-Jan-18 10:50 015 16.1
2020-Jan-18 10:47 015 16.1
2020-Jan-18 10:41 015 16.1
2020-Jan-18 10:36 015 16.1
2020-Jan-18 10:32 015 16.1
2020-Jan-18 10:26 015 16.1
2020-Jan-18 10:21 015 16.1
2020-Jan-18 10:18 015 16.1
2020-Jan-18 10:10 015 16.1
2020-Jan-18 10:05 015 16.1
2020-Jan-18 10:03 015 16.1
2020-Jan-18 09:56 015 16.1
2020-Jan-18 09:50 015 16.7
2020-Jan-18 09:46 009 16.7
2020-Jan-18 09:40 009 16.7
2020-Jan-18 09:35 005 16.7
2020-Jan-18 09:32 009 0 gusting 2 16.7
2020-Jan-18 09:26 200 16.7
2020-Jan-18 09:20 200 16.7
2020-Jan-18 09:16 201 16.7
2020-Jan-18 09:11 203 16.7
2020-Jan-18 09:05 203 16.7
2020-Jan-18 09:01 203 16.7
2020-Jan-18 08:56 203 16.7
2020-Jan-18 08:50 204 0 gusting 1 16.7
2020-Jan-18 08:47 204 0 gusting 1 16.7
2020-Jan-18 08:40 204 16.7
2020-Jan-18 08:36 204 16.7
2020-Jan-18 08:32 204 0 gusting 1 17.2
2020-Jan-18 08:26 070 17.2
2020-Jan-18 08:21 070 0 gusting 1 16.7
2020-Jan-18 08:16 070 17.2
2020-Jan-18 08:11 070 17.2
2020-Jan-18 08:05 070 17.2
2020-Jan-18 08:01 070 17.2
2020-Jan-18 07:55 070 17.2
2020-Jan-18 07:50 070 17.2
2020-Jan-18 07:47 069 17.2
2020-Jan-18 07:40 069 17.2
2020-Jan-18 07:35 068 17.2
2020-Jan-18 07:31 071 0 gusting 1 17.2
2020-Jan-18 07:25 071 17.2
2020-Jan-18 07:20 069 17.2
2020-Jan-18 07:16 069 17.2
2020-Jan-18 07:10 044 17.2
2020-Jan-18 07:05 044 17.8
2020-Jan-18 07:01 044 0 gusting 1 17.8
2020-Jan-18 06:55 044 17.8
2020-Jan-18 06:50 044 0 gusting 2 17.8
2020-Jan-18 06:47 060 17.8
2020-Jan-18 06:40 060 0 gusting 2 17.8
2020-Jan-18 06:35 058 0 gusting 2 17.8
2020-Jan-18 06:30 059 0 gusting 2 17.8
2020-Jan-18 06:25 063 0 gusting 2 17.8
2020-Jan-18 06:20 062 17.8
2020-Jan-18 06:15 061 0 gusting 1 17.8
2020-Jan-18 06:10 065 0 gusting 2 17.8
2020-Jan-18 06:05 065 0 gusting 2 17.8
2020-Jan-18 06:00 065 17.8
2020-Jan-18 05:55 065 0 gusting 2 17.8
2020-Jan-18 05:50 063 0 gusting 2 17.8
2020-Jan-18 05:45 085 0 gusting 1 17.8
2020-Jan-18 05:40 088 0 gusting 2 17.8
2020-Jan-18 05:35 076 0 gusting 2 18.3
2020-Jan-18 05:30 088 0 gusting 2 18.3
2020-Jan-18 05:25 063 18.3
2020-Jan-18 05:20 063 0 gusting 1 18.3
2020-Jan-18 05:16 051 18.3
2020-Jan-18 05:10 051 18.3
2020-Jan-18 05:05 051 18.3
2020-Jan-18 05:00 051 0 gusting 2 18.3
2020-Jan-18 04:55 049 0 gusting 2 18.3
2020-Jan-18 04:50 049 0 gusting 2 18.3
2020-Jan-18 04:45 045 0 gusting 2 18.3
2020-Jan-18 04:40 045 18.3
2020-Jan-18 04:35 044 18.3
2020-Jan-18 04:31 044 18.3
2020-Jan-18 04:25 044 18.3
2020-Jan-18 04:20 043 18.3
2020-Jan-18 04:16 043 18.9
2020-Jan-18 04:10 043 0 gusting 2 18.9
2020-Jan-18 04:05 042 0 gusting 2 18.9
2020-Jan-18 04:01 063 0 gusting 2 18.9
2020-Jan-18 03:55 065 0 gusting 2 18.9
2020-Jan-18 03:50 063 18.9
2020-Jan-18 03:46 063 18.9
2020-Jan-18 03:40 080 18.9
2020-Jan-18 03:35 080 0 gusting 2 18.9
2020-Jan-18 03:31 080 0 gusting 2 18.9
2020-Jan-18 03:25 081 0 gusting 2 18.9
2020-Jan-18 03:20 107 19.4
2020-Jan-18 03:10 065 0 gusting 2 19.4
2020-Jan-18 03:00 098 0 gusting 3 19.4
2020-Jan-18 02:55 079 1 gusting 3 19.4
2020-Jan-18 02:50 066 1 gusting 3 19.4
2020-Jan-18 02:40 102 0 gusting 2 19.4
2020-Jan-18 02:35 110 0 gusting 3 19.4
2020-Jan-18 02:30 067 0 gusting 3 19.4
2020-Jan-18 02:25 098 0 gusting 3 19.4
2020-Jan-18 02:20 072 0 gusting 3 20.0
2020-Jan-18 02:10 079 1 gusting 5 20.0
2020-Jan-18 02:05 103 0 gusting 2 20.0
2020-Jan-18 02:00 093 0 gusting 3 20.0
2020-Jan-18 01:55 113 0 gusting 3 20.0
2020-Jan-18 01:50 066 0 gusting 2 20.0
2020-Jan-18 01:40 086 0 gusting 2 20.0
2020-Jan-18 01:35 082 0 gusting 2 20.0
2020-Jan-18 01:25 055 0 gusting 2 20.0
2020-Jan-18 01:20 051 0 gusting 2 20.0
2020-Jan-18 01:15 109 0 gusting 2 20.6
2020-Jan-18 01:10 059 0 gusting 3 20.6
2020-Jan-18 01:05 073 0 gusting 3 20.6
2020-Jan-18 00:55 046 0 gusting 2 20.6
2020-Jan-18 00:50 046 0 gusting 2 20.6
2020-Jan-18 00:40 066 0 gusting 2 21.1
2020-Jan-18 00:35 069 0 gusting 2 21.1
2020-Jan-18 00:30 142 0 gusting 3 21.1
2020-Jan-18 00:25 063 1 gusting 3 21.1
2020-Jan-18 00:20 067 1 gusting 3 21.1
2020-Jan-18 00:15 071 0 gusting 3 21.1
2020-Jan-18 00:10 065 0 gusting 2 21.1
2020-Jan-18 00:05 070 0 gusting 2 21.1
2020-Jan-18 00:00 071 0 gusting 3 21.7
2020-Jan-17 23:55 059 0 gusting 3 21.7
2020-Jan-17 23:50 059 0 gusting 4 21.7
2020-Jan-17 23:40 069 0 gusting 2 21.7
2020-Jan-17 23:35 071 0 gusting 2 21.7
2020-Jan-17 23:25 073 1 gusting 4 22.2
2020-Jan-17 23:20 081 0 gusting 4 22.2
2020-Jan-17 23:15 069 0 gusting 3 22.2
2020-Jan-17 23:10 085 0 gusting 4 22.2
2020-Jan-17 23:05 126 0 gusting 4 22.2
2020-Jan-17 23:00 233 0 gusting 3 22.2
2020-Jan-17 22:55 070 0 gusting 3 22.8
2020-Jan-17 22:50 070 0 gusting 3 22.8
2020-Jan-17 22:45 067 1 gusting 5 22.8
2020-Jan-17 22:40 067 1 gusting 5 22.8
2020-Jan-17 22:35 074 1 gusting 4 22.8
2020-Jan-17 22:30 063 1 gusting 4 23.3
2020-Jan-17 22:25 071 1 gusting 3 23.3
2020-Jan-17 22:15 071 1 gusting 5 23.3
2020-Jan-17 22:10 086 1 gusting 5 23.3
2020-Jan-17 22:00 096 0 gusting 3 23.9
2020-Jan-17 21:55 101 1 gusting 3 23.9
2020-Jan-17 21:50 079 1 gusting 5 23.9
2020-Jan-17 21:41 059 0 gusting 3 23.9
2020-Jan-17 21:36 048 0 gusting 3 24.4
2020-Jan-17 21:32 088 1 gusting 3 24.4
2020-Jan-17 21:26 076 0 gusting 4 24.4
2020-Jan-17 21:21 091 1 gusting 4 24.4
2020-Jan-17 21:17 061 0 gusting 3 25.0
2020-Jan-17 21:11 074 1 gusting 4 24.4
2020-Jan-17 21:05 065 2 gusting 4 24.4
2020-Jan-17 21:02 069 1 gusting 5 25.0
2020-Jan-17 20:55 057 1 gusting 6 25.0
2020-Jan-17 20:51 066 1 gusting 6 25.0
2020-Jan-17 20:48 087 1 gusting 4 25.6
2020-Jan-17 20:41 081 1 gusting 5 25.6
2020-Jan-17 20:35 130 0 gusting 5 25.6
2020-Jan-17 20:33 113 0 gusting 6 25.6
2020-Jan-17 20:25 081 1 gusting 6 25.6
2020-Jan-17 20:20 063 0 gusting 4 25.6
2020-Jan-17 20:16 094 0 gusting 5 25.6
2020-Jan-17 20:10 080 2 gusting 5 26.1
2020-Jan-17 20:05 077 1 gusting 3 26.1
2020-Jan-17 20:02 073 1 gusting 3 26.1
2020-Jan-17 19:56 086 1 gusting 3 26.1
2020-Jan-17 19:50 036 1 gusting 4 26.7
2020-Jan-17 19:47 080 1 gusting 4 26.7
2020-Jan-17 19:40 169 1 gusting 3 26.7
2020-Jan-17 19:35 071 0 gusting 4 26.7
2020-Jan-17 19:32 080 0 gusting 5 26.7
2020-Jan-17 19:25 058 2 gusting 5 26.1
2020-Jan-17 19:21 105 0 gusting 4 26.7
2020-Jan-17 19:17 064 1 gusting 4 26.7
2020-Jan-17 19:11 061 1 gusting 4 26.7
2020-Jan-17 19:06 121 1 gusting 4 26.7
2020-Jan-17 19:03 077 1 gusting 4 26.7
2020-Jan-17 18:55 019 1 gusting 3 26.7
2020-Jan-17 18:50 098 1 gusting 3 26.1
2020-Jan-17 18:46 150 1 gusting 4 26.1
2020-Jan-17 18:40 121 0 gusting 3 26.1
2020-Jan-17 18:35 089 1 gusting 3 26.1
2020-Jan-17 18:32 069 1 gusting 5 26.1
2020-Jan-17 18:25 064 1 gusting 5 25.6
2020-Jan-17 18:20 082 1 gusting 5 25.6
2020-Jan-17 18:17 072 1 gusting 5 25.6
2020-Jan-17 18:10 022 1 gusting 6 25.6
2020-Jan-17 18:05 194 1 gusting 6 25.6
2020-Jan-17 18:01 085 0 gusting 5 25.6
2020-Jan-17 17:55 076 1 gusting 6 25.0
2020-Jan-17 17:50 071 2 gusting 6 25.0
2020-Jan-17 17:47 075 0 gusting 3 25.0
2020-Jan-17 17:40 107 1 gusting 6 25.0
2020-Jan-17 17:35 097 1 gusting 6 25.0
2020-Jan-17 17:31 217 0 gusting 4 25.0
2020-Jan-17 17:25 181 1 gusting 4 24.4
2020-Jan-17 17:20 096 1 gusting 4 25.0
2020-Jan-17 17:15 068 1 gusting 3 24.4
2020-Jan-17 17:10 063 0 gusting 3 24.4
2020-Jan-17 17:05 052 1 gusting 4 24.4
2020-Jan-17 17:00 055 0 gusting 4 24.4
2020-Jan-17 16:55 181 0 gusting 5 24.4
2020-Jan-17 16:50 065 0 gusting 5 24.4
2020-Jan-17 16:45 074 0 gusting 6 23.9
2020-Jan-17 16:40 065 1 gusting 6 23.9
2020-Jan-17 16:35 071 0 gusting 3 23.9
2020-Jan-17 16:30 061 0 gusting 5 23.9
2020-Jan-17 16:25 065 1 gusting 5 23.9
2020-Jan-17 16:20 071 1 gusting 7 23.9
2020-Jan-17 16:15 080 1 gusting 7 23.9
2020-Jan-17 16:10 115 1 gusting 4 23.9
2020-Jan-17 16:05 013 0 gusting 3 23.9
2020-Jan-17 16:01 073 1 gusting 3 23.3
2020-Jan-17 15:55 086 0 gusting 5 23.3
2020-Jan-17 15:50 084 1 gusting 5 23.3
2020-Jan-17 15:46 107 1 gusting 6 22.8
2020-Jan-17 15:40 045 1 gusting 5 22.8
2020-Jan-17 15:35 075 2 gusting 5 22.8
2020-Jan-17 15:25 047 1 gusting 5 22.2
2020-Jan-17 15:20 063 1 gusting 4 22.2
2020-Jan-17 15:10 066 0 gusting 3 21.7
2020-Jan-17 15:05 046 0 gusting 3 21.7
2020-Jan-17 15:00 114 0 gusting 6 21.7